CWI845 VRMM-HKJK

Flight info

Callsign CWI845
Flight time N/A
Altitude 38000
Route ESKOL1B ESKOL DCT PIKUK L756 CLAVA UM432 EGLOM UT386 KESOM UL303 IBROM IBROM1A
Aircraft A35K/H-SDE2E3GHIJ3J4J5LM1ORWXY/LB1D1

Departure

Time 2026-04-29 14:46
Airport Velana International Airport (VRMM)

Arrival

Time N/A
Airport Jomo Kenyatta International Airport (HKJK)
Time Latitude Longitude Altitude Speed Heading
2026-04-29 14:39 4.18213 73.52783 21 ft 0 kts 269°
2026-04-29 14:40 4.18213 73.52784 20 ft 0 kts 269°
2026-04-29 14:42 4.18213 73.52783 20 ft 0 kts 269°
2026-04-29 14:42 4.18213 73.52789 22 ft 2 kts 269°
2026-04-29 14:42 4.18212 73.52824 22 ft 8 kts 275°
2026-04-29 14:43 4.18197 73.52857 19 ft 0 kts 343°
2026-04-29 14:43 4.18248 73.52850 18 ft 29 kts 358°
2026-04-29 14:43 4.18487 73.52854 18 ft 35 kts 356°
2026-04-29 14:43 4.18731 73.52847 18 ft 35 kts 358°
2026-04-29 14:44 4.18984 73.52862 20 ft 37 kts 13°
2026-04-29 14:44 4.19242 73.52909 18 ft 40 kts 360°
2026-04-29 14:44 4.19509 73.52879 21 ft 38 kts 355°
2026-04-29 14:44 4.19765 73.52893 18 ft 37 kts
2026-04-29 14:45 4.20018 73.52883 18 ft 36 kts
2026-04-29 14:45 4.20273 73.52891 18 ft 37 kts
2026-04-29 14:45 4.20361 73.53055 18 ft 23 kts 117°
2026-04-29 14:45 4.20166 73.53098 18 ft 62 kts 179°
2026-04-29 14:46 4.19399 73.53098 19 ft 153 kts 181°
2026-04-29 14:46 4.18099 73.53119 385 ft 196 kts 177°
2026-04-29 14:46 4.16724 73.53215 1577 ft 210 kts 176°
2026-04-29 14:46 4.15178 73.53350 2338 ft 228 kts 175°
2026-04-29 14:47 4.13560 73.53520 2737 ft 240 kts 174°
2026-04-29 14:47 4.11857 73.53729 3117 ft 253 kts 173°
2026-04-29 14:47 4.10091 73.53973 3675 ft 258 kts 173°
2026-04-29 14:47 4.08913 73.54136 4106 ft 259 kts 173°
2026-04-29 14:48 4.06516 73.54468 4877 ft 266 kts 173°
2026-04-29 14:48 4.04706 73.54711 5358 ft 273 kts 174°
2026-04-29 14:48 4.02805 73.54672 5927 ft 275 kts 191°
2026-04-29 14:48 4.01030 73.53985 6474 ft 276 kts 215°
2026-04-29 14:49 3.99758 73.52576 7065 ft 273 kts 244°
2026-04-29 14:49 3.99318 73.50782 7969 ft 261 kts 263°
2026-04-29 14:49 3.98878 73.49018 9136 ft 263 kts 253°
2026-04-29 14:49 3.98351 73.47200 9933 ft 283 kts 253°
2026-04-29 14:50 3.97781 73.45220 10454 ft 309 kts 253°
2026-04-29 14:50 3.97169 73.43064 10867 ft 334 kts 253°
2026-04-29 14:50 3.96518 73.40751 11297 ft 355 kts 253°
2026-04-29 14:50 3.95840 73.38326 11970 ft 366 kts 253°
2026-04-29 14:51 3.95145 73.35839 12760 ft 373 kts 253°
2026-04-29 14:51 3.94440 73.33315 13585 ft 379 kts 253°
2026-04-29 14:51 3.93724 73.30751 14324 ft 385 kts 253°
2026-04-29 14:51 3.93246 73.29038 14815 ft 388 kts 253°
2026-04-29 14:52 3.92513 73.26414 15578 ft 393 kts 253°
2026-04-29 14:52 3.91529 73.22892 16593 ft 399 kts 253°
2026-04-29 14:52 3.90778 73.20200 17323 ft 404 kts 253°
2026-04-29 14:52 3.90016 73.17474 18006 ft 409 kts 253°
2026-04-29 14:53 3.89246 73.14718 18574 ft 413 kts 253°
2026-04-29 14:53 3.88469 73.11936 19098 ft 417 kts 253°
2026-04-29 14:53 3.87939 73.10039 19443 ft 420 kts 253°
2026-04-29 14:53 3.87147 73.07206 19931 ft 423 kts 253°
2026-04-29 14:54 3.86360 73.04391 20405 ft 427 kts 253°
2026-04-29 14:54 3.85557 73.01518 20882 ft 430 kts 253°
2026-04-29 14:54 3.84746 72.98619 21374 ft 434 kts 253°
2026-04-29 14:54 3.83918 72.95658 21874 ft 437 kts 253°
2026-04-29 14:55 3.83095 72.92714 22347 ft 441 kts 253°
2026-04-29 14:55 3.82274 72.89778 22815 ft 445 kts 253°
2026-04-29 14:55 3.81436 72.86783 23273 ft 448 kts 253°
2026-04-29 14:55 3.80592 72.83762 23677 ft 452 kts 253°
2026-04-29 14:56 3.79902 72.80688 24048 ft 455 kts 261°
2026-04-29 14:56 3.79725 72.77514 24426 ft 458 kts 271°
2026-04-29 14:56 3.79894 72.74317 24821 ft 460 kts 274°
2026-04-29 14:56 3.80211 72.71118 25233 ft 463 kts 276°
2026-04-29 14:57 3.80595 72.67905 25652 ft 466 kts 277°
2026-04-29 14:57 3.80995 72.64675 26089 ft 468 kts 277°
2026-04-29 14:57 3.81387 72.61437 26533 ft 471 kts 276°
2026-04-29 14:57 3.81765 72.58168 26979 ft 474 kts 276°
2026-04-29 14:58 3.82132 72.54878 27392 ft 477 kts 276°
2026-04-29 14:58 3.82491 72.51560 27841 ft 480 kts 276°
2026-04-29 14:58 3.82847 72.48224 28271 ft 483 kts 276°
2026-04-29 14:58 3.83201 72.44875 28681 ft 486 kts 276°
2026-04-29 14:59 3.83559 72.41493 29086 ft 489 kts 276°
2026-04-29 14:59 3.83918 72.38104 29483 ft 492 kts 276°
2026-04-29 14:59 3.84281 72.34685 29877 ft 495 kts 276°
2026-04-29 14:59 3.84645 72.31251 30214 ft 498 kts 276°
2026-04-29 15:00 3.85013 72.27795 30528 ft 500 kts 276°
2026-04-29 15:00 3.85381 72.24331 30864 ft 502 kts 276°
2026-04-29 15:00 3.85751 72.20849 31205 ft 504 kts 276°
2026-04-29 15:00 3.86123 72.17349 31520 ft 506 kts 276°
2026-04-29 15:01 3.86495 72.13841 31812 ft 508 kts 276°
2026-04-29 15:01 3.86870 72.10307 32109 ft 511 kts 276°
2026-04-29 15:01 3.87246 72.06768 32392 ft 513 kts 276°
2026-04-29 15:01 3.87623 72.03205 32668 ft 515 kts 276°
2026-04-29 15:02 3.88002 71.99637 32934 ft 517 kts 276°
2026-04-29 15:02 3.88362 71.96107 33268 ft 517 kts 274°
2026-04-29 15:02 3.88417 71.92516 33594 ft 514 kts 266°
2026-04-29 15:02 3.87998 71.88961 33770 ft 515 kts 260°
2026-04-29 15:03 3.87385 71.85418 33854 ft 518 kts 258°
2026-04-29 15:03 3.86697 71.81887 34058 ft 517 kts 258°
2026-04-29 15:03 3.85973 71.78349 34296 ft 516 kts 257°
2026-04-29 15:03 3.85245 71.74839 34557 ft 515 kts 257°
2026-04-29 15:04 3.84521 71.71330 34804 ft 514 kts 258°
2026-04-29 15:04 3.83802 71.67817 35055 ft 513 kts 258°
2026-04-29 15:04 3.83092 71.64313 35294 ft 513 kts 258°
2026-04-29 15:04 3.82387 71.60809 35541 ft 512 kts 258°
2026-04-29 15:05 3.81687 71.57319 35793 ft 511 kts 258°
2026-04-29 15:05 3.80308 71.50432 35886 ft 505 kts 258°
2026-04-29 15:06 3.78960 71.43542 35889 ft 503 kts 259°
2026-04-29 15:06 3.77725 71.36699 35889 ft 497 kts 259°
2026-04-29 15:07 3.76504 71.29899 35889 ft 496 kts 259°
2026-04-29 15:07 3.75266 71.23103 35889 ft 496 kts 259°
2026-04-29 15:08 3.74017 71.16309 35887 ft 496 kts 259°
2026-04-29 15:08 3.72769 71.09525 35887 ft 496 kts 259°
2026-04-29 15:09 3.71517 71.02721 35886 ft 496 kts 259°
2026-04-29 15:09 3.70267 70.95933 35887 ft 496 kts 259°
2026-04-29 15:10 3.69026 70.89188 35889 ft 496 kts 259°
2026-04-29 15:10 3.67776 70.82399 35889 ft 496 kts 259°
2026-04-29 15:11 3.66522 70.75598 35889 ft 496 kts 259°
2026-04-29 15:11 3.65272 70.68815 35889 ft 496 kts 259°
2026-04-29 15:12 3.64019 70.62025 35892 ft 496 kts 259°
2026-04-29 15:12 3.62766 70.55231 35892 ft 496 kts 259°
2026-04-29 15:13 3.61521 70.48491 35892 ft 496 kts 259°
2026-04-29 15:13 3.60267 70.41697 35890 ft 495 kts 259°
2026-04-29 15:14 3.59014 70.34916 35890 ft 495 kts 259°
2026-04-29 15:14 3.57762 70.28139 35893 ft 495 kts 259°
2026-04-29 15:15 3.56507 70.21351 35892 ft 496 kts 259°
2026-04-29 15:15 3.55251 70.14560 35893 ft 497 kts 259°
2026-04-29 15:16 3.53991 70.07755 35889 ft 497 kts 259°
2026-04-29 15:16 3.52731 70.00944 35892 ft 497 kts 259°
2026-04-29 15:17 3.51469 69.94133 35893 ft 497 kts 259°
2026-04-29 15:17 3.50215 69.87366 35893 ft 497 kts 259°
2026-04-29 15:18 3.48953 69.80557 35890 ft 498 kts 259°
2026-04-29 15:18 3.47689 69.73738 35890 ft 498 kts 259°
2026-04-29 15:19 3.46421 69.66907 35890 ft 498 kts 259°
2026-04-29 15:19 3.45155 69.60086 35889 ft 498 kts 259°
2026-04-29 15:20 3.43887 69.53259 35890 ft 498 kts 259°
2026-04-29 15:20 3.42621 69.46443 35891 ft 498 kts 259°
2026-04-29 15:21 3.41354 69.39625 35889 ft 498 kts 259°
2026-04-29 15:21 3.40087 69.32810 35889 ft 498 kts 259°
2026-04-29 15:22 3.38827 69.26034 35891 ft 498 kts 259°
2026-04-29 15:22 3.37559 69.19221 35891 ft 498 kts 259°
2026-04-29 15:23 3.36288 69.12396 35893 ft 499 kts 259°
2026-04-29 15:23 3.35015 69.05556 35891 ft 500 kts 259°
2026-04-29 15:24 3.33740 68.98711 35890 ft 500 kts 259°
2026-04-29 15:24 3.32466 68.91875 35889 ft 500 kts 259°
2026-04-29 15:25 3.31192 68.85040 35894 ft 500 kts 259°
2026-04-29 15:25 3.29919 68.78215 35891 ft 498 kts 259°
2026-04-29 15:26 3.28647 68.71395 35892 ft 498 kts 259°
2026-04-29 15:26 3.27435 68.64564 35891 ft 498 kts 261°
2026-04-29 15:27 3.26296 68.57719 35893 ft 498 kts 261°
2026-04-29 15:27 3.25153 68.50885 35892 ft 498 kts 260°
2026-04-29 15:28 3.23997 68.44066 35892 ft 496 kts 260°
2026-04-29 15:28 3.22836 68.37257 35892 ft 496 kts 260°
2026-04-29 15:29 3.21682 68.30497 35891 ft 496 kts 260°
2026-04-29 15:30 3.19357 68.16871 35896 ft 496 kts 260°
2026-04-29 15:30 3.18198 68.10079 35894 ft 495 kts 260°
2026-04-29 15:31 3.17038 68.03285 35893 ft 496 kts 260°
2026-04-29 15:31 3.15877 67.96489 35891 ft 496 kts 260°
2026-04-29 15:32 3.14714 67.89686 35892 ft 496 kts 260°
2026-04-29 15:32 3.13551 67.82885 35893 ft 496 kts 260°
2026-04-29 15:33 3.12387 67.76084 35893 ft 496 kts 260°
2026-04-29 15:33 3.11232 67.69332 35892 ft 496 kts 260°
2026-04-29 15:34 3.10067 67.62527 35895 ft 496 kts 260°
2026-04-29 15:34 3.08903 67.55731 35895 ft 496 kts 260°
2026-04-29 15:35 3.07736 67.48923 35892 ft 497 kts 260°
2026-04-29 15:35 3.06567 67.42103 35893 ft 498 kts 260°
2026-04-29 15:36 3.05395 67.35264 35893 ft 498 kts 260°
2026-04-29 15:36 3.04223 67.28436 36091 ft 499 kts 260°
2026-04-29 15:36 3.03636 67.25014 36269 ft 500 kts 260°
2026-04-29 15:37 3.03047 67.21580 36477 ft 501 kts 260°
2026-04-29 15:37 3.02466 67.18196 36761 ft 499 kts 260°
2026-04-29 15:37 3.01878 67.14771 36962 ft 500 kts 260°
2026-04-29 15:37 3.01280 67.11288 37123 ft 502 kts 260°
2026-04-29 15:38 3.00688 67.07842 37265 ft 503 kts 260°
2026-04-29 15:38 3.00094 67.04388 37421 ft 505 kts 260°
2026-04-29 15:38 2.99506 67.00962 37574 ft 506 kts 260°
2026-04-29 15:38 2.98909 66.97492 37723 ft 507 kts 260°
2026-04-29 15:39 2.98310 66.94008 37856 ft 509 kts 260°
2026-04-29 15:39 2.97110 66.87027 37889 ft 509 kts 260°
2026-04-29 15:40 2.95904 66.80015 37891 ft 513 kts 260°
2026-04-29 15:40 2.94897 66.74162 37889 ft 513 kts 260°
2026-04-29 15:41 2.93686 66.67125 37888 ft 513 kts 260°
2026-04-29 15:41 2.92474 66.60088 37891 ft 513 kts 260°
2026-04-29 15:42 2.91263 66.53057 37899 ft 513 kts 260°
2026-04-29 15:42 2.90050 66.46020 37898 ft 513 kts 260°
2026-04-29 15:43 2.88837 66.38983 37891 ft 513 kts 260°
2026-04-29 15:43 2.87623 66.31946 37890 ft 513 kts 260°
2026-04-29 15:44 2.86409 66.24909 37894 ft 513 kts 260°
2026-04-29 15:44 2.85198 66.17893 37892 ft 510 kts 260°
2026-04-29 15:45 2.83992 66.10907 37892 ft 509 kts 260°
2026-04-29 15:45 2.82785 66.03917 37890 ft 509 kts 260°
2026-04-29 15:46 2.81585 65.96976 37896 ft 509 kts 260°
2026-04-29 15:46 2.80378 65.89994 37895 ft 510 kts 260°
2026-04-29 15:47 2.79169 65.82997 37896 ft 510 kts 260°
2026-04-29 15:47 2.77958 65.76001 37891 ft 511 kts 261°
2026-04-29 15:48 2.76744 65.68983 37893 ft 512 kts 261°
2026-04-29 15:48 2.75530 65.61963 37892 ft 512 kts 261°
2026-04-29 15:49 2.74314 65.54940 37893 ft 512 kts 261°
2026-04-29 15:49 2.73095 65.47905 37893 ft 512 kts 261°
2026-04-29 15:50 2.71886 65.40926 37891 ft 512 kts 261°
2026-04-29 15:50 2.70671 65.33919 37896 ft 512 kts 261°
2026-04-29 15:51 2.69450 65.26877 37897 ft 512 kts 260°
2026-04-29 15:51 2.68236 65.19875 37898 ft 511 kts 260°
2026-04-29 15:52 2.67020 65.12872 37893 ft 511 kts 260°
2026-04-29 15:52 2.65804 65.05869 37892 ft 511 kts 260°
2026-04-29 15:53 2.64590 64.98876 37891 ft 511 kts 260°
2026-04-29 15:53 2.63374 64.91878 37892 ft 510 kts 260°
2026-04-29 15:54 2.62158 64.84879 37888 ft 510 kts 260°
2026-04-29 15:54 2.60943 64.77889 37888 ft 510 kts 260°
2026-04-29 15:55 2.59727 64.70898 37891 ft 510 kts 260°
2026-04-29 15:55 2.58517 64.63939 37892 ft 510 kts 260°
2026-04-29 15:56 2.57299 64.56942 37893 ft 510 kts 260°
2026-04-29 15:56 2.56083 64.49953 37890 ft 510 kts 260°
2026-04-29 15:57 2.54866 64.42964 37893 ft 510 kts 260°
2026-04-29 15:57 2.53648 64.35972 37890 ft 510 kts 260°
2026-04-29 15:58 2.52433 64.28997 37888 ft 509 kts 260°
2026-04-29 15:58 2.51219 64.22033 37892 ft 508 kts 260°
2026-04-29 15:59 2.50004 64.15067 37887 ft 508 kts 260°
2026-04-29 15:59 2.48791 64.08108 37890 ft 508 kts 260°
2026-04-29 16:00 2.47575 64.01141 37888 ft 508 kts 260°
2026-04-29 16:00 2.46360 63.94178 37888 ft 508 kts 260°
2026-04-29 16:01 2.45144 63.87215 37889 ft 508 kts 260°
2026-04-29 16:01 2.43928 63.80250 37890 ft 508 kts 260°
2026-04-29 16:02 2.42720 63.73332 37884 ft 508 kts 261°
2026-04-29 16:02 2.41501 63.66358 37891 ft 510 kts 261°
2026-04-29 16:03 2.40280 63.59372 37889 ft 510 kts 261°
2026-04-29 16:03 2.39058 63.52382 37886 ft 510 kts 261°
2026-04-29 16:04 2.37828 63.45346 37893 ft 517 kts 261°
2026-04-29 16:04 2.36586 63.38241 37891 ft 520 kts 260°
2026-04-29 16:05 2.35339 63.31114 37891 ft 520 kts 260°
2026-04-29 16:05 2.34090 63.23984 37888 ft 521 kts 260°
2026-04-29 16:06 2.32842 63.16854 37885 ft 520 kts 260°
2026-04-29 16:06 2.31593 63.09725 37889 ft 520 kts 260°
2026-04-29 16:07 2.30347 63.02614 37891 ft 519 kts 260°
2026-04-29 16:07 2.29102 62.95510 37893 ft 519 kts 260°
2026-04-29 16:08 2.27855 62.88400 37891 ft 519 kts 260°
2026-04-29 16:08 2.26610 62.81297 37894 ft 519 kts 260°
2026-04-29 16:09 2.25371 62.74234 37888 ft 519 kts 260°
2026-04-29 16:09 2.24115 62.67080 37888 ft 519 kts 260°
2026-04-29 16:10 2.22868 62.59975 37892 ft 519 kts 260°
2026-04-29 16:10 2.21626 62.52903 37887 ft 519 kts 260°
2026-04-29 16:11 2.20377 62.45790 37885 ft 520 kts 260°
2026-04-29 16:11 2.19127 62.38672 37891 ft 520 kts 260°
2026-04-29 16:12 2.17874 62.31548 37886 ft 520 kts 260°
2026-04-29 16:12 2.16623 62.24426 37886 ft 520 kts 260°
2026-04-29 16:13 2.15372 62.17312 37892 ft 519 kts 260°
2026-04-29 16:13 2.14121 62.10204 37892 ft 519 kts 260°
2026-04-29 16:14 2.12870 62.03094 37892 ft 519 kts 260°
2026-04-29 16:14 2.11627 61.96029 37889 ft 519 kts 260°
2026-04-29 16:15 2.10377 61.88924 37890 ft 519 kts 260°
2026-04-29 16:15 2.09124 61.81808 37889 ft 520 kts 260°
2026-04-29 16:16 2.07870 61.74689 37887 ft 520 kts 260°
2026-04-29 16:16 2.06615 61.67570 37886 ft 520 kts 260°
2026-04-29 16:17 2.05361 61.60452 37887 ft 520 kts 260°
2026-04-29 16:17 2.04107 61.53338 37887 ft 520 kts 260°
2026-04-29 16:18 2.02852 61.46221 37889 ft 520 kts 260°
2026-04-29 16:18 2.01598 61.39109 37889 ft 520 kts 260°
2026-04-29 16:19 2.00346 61.31987 37887 ft 521 kts 259°
2026-04-29 16:19 1.99084 61.24836 37887 ft 523 kts 259°
2026-04-29 16:20 1.97815 61.17667 37887 ft 523 kts 259°
2026-04-29 16:20 1.96558 61.10556 37886 ft 523 kts 259°
2026-04-29 16:21 1.95292 61.03390 37888 ft 523 kts 259°
2026-04-29 16:21 1.94026 60.96221 37887 ft 524 kts 259°
2026-04-29 16:22 1.92759 60.89051 37887 ft 524 kts 259°
2026-04-29 16:22 1.91492 60.81882 37886 ft 524 kts 259°
2026-04-29 16:23 1.90225 60.74715 37881 ft 524 kts 259°
2026-04-29 16:23 1.88957 60.67542 37884 ft 523 kts 259°
2026-04-29 16:24 1.87691 60.60381 37887 ft 523 kts 259°
2026-04-29 16:24 1.86422 60.53209 37885 ft 523 kts 259°
2026-04-29 16:25 1.85154 60.46041 37890 ft 523 kts 259°
2026-04-29 16:25 1.84101 60.40095 37889 ft 522 kts 259°
2026-04-29 16:26 1.82836 60.32946 37889 ft 522 kts 259°
2026-04-29 16:26 1.81365 60.24639 37892 ft 522 kts 259°
2026-04-29 16:27 1.80303 60.18642 37890 ft 522 kts 259°
2026-04-29 16:27 1.79047 60.11556 37888 ft 520 kts 259°
2026-04-29 16:28 1.77787 60.04444 37889 ft 519 kts 259°
2026-04-29 16:28 1.76568 59.97335 37888 ft 519 kts 262°
2026-04-29 16:29 1.75891 59.90145 37889 ft 519 kts 265°
2026-04-29 16:29 1.75387 59.82948 37889 ft 518 kts 265°
2026-04-29 16:30 1.74815 59.75783 37891 ft 517 kts 264°
2026-04-29 16:30 1.74182 59.68636 37893 ft 517 kts 264°
2026-04-29 16:31 1.73530 59.61473 37888 ft 517 kts 264°
2026-04-29 16:31 1.72880 59.54331 37891 ft 515 kts 264°
2026-04-29 16:32 1.72234 59.47198 37885 ft 515 kts 264°
2026-04-29 16:32 1.71589 59.40067 37886 ft 515 kts 264°
2026-04-29 16:33 1.70627 59.29424 37891 ft 515 kts 264°
2026-04-29 16:33 1.69980 59.22284 37890 ft 516 kts 264°
2026-04-29 16:34 1.69333 59.15136 37892 ft 516 kts 264°
2026-04-29 16:34 1.68686 59.07996 37892 ft 516 kts 264°
2026-04-29 16:35 1.68038 59.00847 37892 ft 516 kts 264°
2026-04-29 16:35 1.67390 58.93702 37890 ft 517 kts 264°
2026-04-29 16:36 1.66741 58.86543 37889 ft 517 kts 264°
2026-04-29 16:36 1.66091 58.79389 37883 ft 517 kts 264°
2026-04-29 16:37 1.65442 58.72236 37885 ft 517 kts 264°
2026-04-29 16:37 1.64902 58.66293 37884 ft 516 kts 264°
2026-04-29 16:38 1.64143 58.57940 37884 ft 517 kts 264°
2026-04-29 16:38 1.63493 58.50787 37884 ft 517 kts 264°
2026-04-29 16:39 1.62843 58.43639 37885 ft 517 kts 264°
2026-04-29 16:39 1.62195 58.36510 37880 ft 521 kts 264°
2026-04-29 16:40 1.61534 58.29254 37879 ft 525 kts 264°
2026-04-29 16:40 1.60871 58.21970 37882 ft 525 kts 264°
2026-04-29 16:41 1.60208 58.14694 37882 ft 525 kts 264°
2026-04-29 16:41 1.59546 58.07426 37882 ft 525 kts 264°
2026-04-29 16:42 1.58883 58.00157 37882 ft 525 kts 264°
2026-04-29 16:42 1.58221 57.92893 37882 ft 525 kts 264°
2026-04-29 16:43 1.57562 57.85677 37880 ft 524 kts 264°
2026-04-29 16:43 1.56901 57.78427 37882 ft 523 kts 264°
2026-04-29 16:44 1.56240 57.71186 37880 ft 523 kts 264°
2026-04-29 16:44 1.55576 57.63924 37881 ft 523 kts 264°
2026-04-29 16:45 1.54916 57.56696 37879 ft 522 kts 264°
2026-04-29 16:45 1.54256 57.49478 37879 ft 522 kts 264°
2026-04-29 16:46 1.53600 57.42303 37882 ft 521 kts 264°
2026-04-29 16:46 1.52940 57.35089 37879 ft 521 kts 264°
2026-04-29 16:47 1.52280 57.27882 37879 ft 521 kts 264°
2026-04-29 16:47 1.51621 57.20671 37878 ft 521 kts 264°
2026-04-29 16:48 1.50961 57.13463 37877 ft 521 kts 264°
2026-04-29 16:48 1.50301 57.06259 37877 ft 520 kts 264°
2026-04-29 16:49 1.49641 56.99058 37879 ft 520 kts 264°
2026-04-29 16:49 1.48981 56.91862 37879 ft 520 kts 264°
2026-04-29 16:50 1.48321 56.84663 37879 ft 520 kts 264°
2026-04-29 16:50 1.47661 56.77469 37880 ft 520 kts 264°
2026-04-29 16:51 1.47001 56.70273 37877 ft 520 kts 264°
2026-04-29 16:51 1.46341 56.63080 37879 ft 520 kts 264°
2026-04-29 16:52 1.45680 56.55889 37879 ft 520 kts 264°
2026-04-29 16:52 1.45019 56.48695 37881 ft 519 kts 264°
2026-04-29 16:53 1.44359 56.41506 37881 ft 519 kts 264°
2026-04-29 16:53 1.43698 56.34316 37881 ft 519 kts 264°
2026-04-29 16:54 1.43036 56.27125 37877 ft 519 kts 264°
2026-04-29 16:54 1.42376 56.19943 37880 ft 519 kts 264°
2026-04-29 16:55 1.41719 56.12803 37884 ft 519 kts 264°
2026-04-29 16:55 1.41057 56.05611 37875 ft 519 kts 264°
2026-04-29 16:56 1.40395 55.98426 37881 ft 519 kts 264°
2026-04-29 16:56 1.39733 55.91241 37875 ft 519 kts 264°
2026-04-29 16:57 1.39070 55.84050 37879 ft 519 kts 264°
2026-04-29 16:57 1.38408 55.76867 37880 ft 519 kts 264°
2026-04-29 16:58 1.37750 55.69733 37878 ft 518 kts 264°
2026-04-29 16:58 1.37088 55.62552 37878 ft 518 kts 264°
2026-04-29 16:59 1.36426 55.55381 37873 ft 518 kts 264°
2026-04-29 16:59 1.35764 55.48210 37871 ft 518 kts 264°
2026-04-29 17:00 1.35103 55.41049 37872 ft 517 kts 264°
2026-04-29 17:00 1.34442 55.33889 37875 ft 517 kts 264°
2026-04-29 17:01 1.33792 55.26738 37873 ft 517 kts 265°
2026-04-29 17:01 1.33257 55.19572 37872 ft 517 kts 266°
2026-04-29 17:02 1.32757 55.12406 37873 ft 517 kts 265°
2026-04-29 17:02 1.32239 55.05232 37873 ft 517 kts 265°
2026-04-29 17:03 1.31713 54.98115 37877 ft 517 kts 265°
2026-04-29 17:03 1.31177 54.90906 37875 ft 517 kts 265°
2026-04-29 17:04 1.30644 54.83745 37878 ft 517 kts 265°
2026-04-29 17:04 1.30115 54.76631 37875 ft 517 kts 265°
2026-04-29 17:05 1.29583 54.69472 37873 ft 515 kts 265°
2026-04-29 17:05 1.29051 54.62330 37883 ft 515 kts 265°
2026-04-29 17:06 1.28520 54.55186 37883 ft 515 kts 265°
2026-04-29 17:06 1.27989 54.48050 37875 ft 515 kts 265°
2026-04-29 17:07 1.27548 54.42131 37875 ft 513 kts 265°
2026-04-29 17:07 1.26929 54.33832 37875 ft 512 kts 265°
2026-04-29 17:08 1.26400 54.26727 37875 ft 512 kts 265°
2026-04-29 17:08 1.25871 54.19633 37876 ft 511 kts 265°
2026-04-29 17:09 1.25344 54.12563 37878 ft 510 kts 265°
2026-04-29 17:09 1.24820 54.05544 37877 ft 510 kts 265°
2026-04-29 17:10 1.24292 53.98474 37879 ft 510 kts 265°
2026-04-29 17:10 1.23766 53.91420 37878 ft 508 kts 265°
2026-04-29 17:11 1.23240 53.84383 37878 ft 508 kts 265°
2026-04-29 17:11 1.22802 53.78523 37881 ft 509 kts 265°
2026-04-29 17:12 1.22275 53.71467 37882 ft 509 kts 265°
2026-04-29 17:12 1.21834 53.65567 37881 ft 508 kts 265°
2026-04-29 17:13 1.21222 53.57392 37877 ft 507 kts 265°
2026-04-29 17:13 1.20696 53.50361 37879 ft 508 kts 265°
2026-04-29 17:14 1.20170 53.43329 37881 ft 507 kts 265°
2026-04-29 17:14 1.19643 53.36295 37879 ft 507 kts 265°
2026-04-29 17:15 1.19117 53.29266 37880 ft 507 kts 265°
2026-04-29 17:15 1.18590 53.22234 37880 ft 507 kts 265°
2026-04-29 17:16 1.18064 53.15217 37882 ft 506 kts 265°
2026-04-29 17:16 1.17538 53.08205 37881 ft 506 kts 265°
2026-04-29 17:17 1.17012 53.01193 37882 ft 506 kts 265°
2026-04-29 17:17 1.16488 52.94194 37877 ft 504 kts 264°
2026-04-29 17:18 1.15966 52.87248 37877 ft 504 kts 264°
2026-04-29 17:18 1.15441 52.80263 37881 ft 504 kts 264°
2026-04-29 17:19 1.14917 52.73276 37884 ft 502 kts 264°
2026-04-29 17:19 1.14396 52.66330 37887 ft 500 kts 264°
2026-04-29 17:20 1.13874 52.59398 37883 ft 500 kts 264°
2026-04-29 17:20 1.13352 52.52466 37884 ft 500 kts 264°
2026-04-29 17:21 1.12836 52.45590 37879 ft 498 kts 264°
2026-04-29 17:21 1.12317 52.38693 37884 ft 497 kts 264°
2026-04-29 17:22 1.11799 52.31795 37879 ft 497 kts 264°
2026-04-29 17:22 1.11286 52.24900 37888 ft 497 kts 264°
2026-04-29 17:23 1.10774 52.18007 37878 ft 497 kts 264°
2026-04-29 17:23 1.10262 52.11125 37890 ft 497 kts 264°
2026-04-29 17:24 1.09752 52.04285 37882 ft 497 kts 264°
2026-04-29 17:24 1.09241 51.97424 37880 ft 493 kts 264°
2026-04-29 17:25 1.08732 51.90597 37886 ft 492 kts 264°
2026-04-29 17:25 1.08223 51.83777 37885 ft 492 kts 264°
2026-04-29 17:26 1.07714 51.76959 37890 ft 493 kts 264°
2026-04-29 17:26 1.07201 51.70105 37883 ft 495 kts 264°
2026-04-29 17:27 1.06690 51.63251 37890 ft 495 kts 264°
2026-04-29 17:27 1.06177 51.56388 37890 ft 495 kts 264°
2026-04-29 17:28 1.05665 51.49533 37891 ft 494 kts 264°
2026-04-29 17:28 1.05153 51.42680 37892 ft 494 kts 264°
2026-04-29 17:29 1.04645 51.35882 37887 ft 494 kts 264°
2026-04-29 17:29 1.04216 51.30146 37896 ft 493 kts 264°
2026-04-29 17:30 1.03622 51.22218 37895 ft 492 kts 264°
2026-04-29 17:30 1.03111 51.15397 37893 ft 492 kts 264°
2026-04-29 17:31 1.02603 51.08568 37893 ft 492 kts 264°
2026-04-29 17:31 1.02094 51.01746 37888 ft 492 kts 264°
2026-04-29 17:32 1.01583 50.94927 37892 ft 492 kts 264°
2026-04-29 17:32 1.01073 50.88114 37887 ft 492 kts 264°
2026-04-29 17:33 1.00560 50.81279 37885 ft 495 kts 264°
2026-04-29 17:33 1.00049 50.74455 37890 ft 496 kts 265°
2026-04-29 17:34 0.99534 50.67569 37894 ft 496 kts 265°
2026-04-29 17:34 0.99018 50.60697 37893 ft 497 kts 265°
2026-04-29 17:35 0.98243 50.50333 37892 ft 498 kts 265°
2026-04-29 17:36 0.97726 50.43423 37892 ft 499 kts 265°
2026-04-29 17:36 0.97210 50.36552 37892 ft 499 kts 265°
2026-04-29 17:37 0.96691 50.29619 37891 ft 500 kts 265°
2026-04-29 17:37 0.96171 50.22685 37891 ft 500 kts 265°
2026-04-29 17:38 0.95650 50.15745 37899 ft 500 kts 265°
2026-04-29 17:38 0.95131 50.08822 37898 ft 500 kts 265°
2026-04-29 17:39 0.94610 50.01886 37891 ft 500 kts 265°
2026-04-29 17:39 0.94093 49.94997 37890 ft 501 kts 265°
2026-04-29 17:40 0.93572 49.88052 37888 ft 502 kts 265°
2026-04-29 17:40 0.93048 49.81091 37888 ft 502 kts 265°
2026-04-29 17:41 0.92526 49.74141 37899 ft 502 kts 265°
2026-04-29 17:41 0.92001 49.67167 37888 ft 504 kts 265°
2026-04-29 17:42 0.91475 49.60171 37899 ft 505 kts 265°
2026-04-29 17:42 0.90948 49.53176 37899 ft 504 kts 265°
2026-04-29 17:43 0.90421 49.46177 37896 ft 506 kts 265°
2026-04-29 17:43 0.89894 49.39161 37892 ft 507 kts 265°
2026-04-29 17:44 0.89365 49.32136 37896 ft 507 kts 265°
2026-04-29 17:44 0.88837 49.25116 37894 ft 507 kts 265°
2026-04-29 17:45 0.88308 49.18088 37899 ft 507 kts 265°
2026-04-29 17:45 0.87778 49.11063 37899 ft 507 kts 265°
2026-04-29 17:46 0.87253 49.04086 37896 ft 507 kts 265°
2026-04-29 17:46 0.86723 48.97057 37896 ft 507 kts 265°
2026-04-29 17:47 0.86194 48.90037 37893 ft 506 kts 265°
2026-04-29 17:47 0.85668 48.83059 37883 ft 501 kts 265°
2026-04-29 17:48 0.85144 48.76117 37900 ft 501 kts 265°
2026-04-29 17:48 0.84621 48.69183 37899 ft 501 kts 265°
2026-04-29 17:49 0.84095 48.62231 37900 ft 501 kts 265°
2026-04-29 17:49 0.83572 48.55290 37887 ft 502 kts 265°
2026-04-29 17:50 0.83048 48.48345 37893 ft 501 kts 265°
2026-04-29 17:50 0.82523 48.41400 37883 ft 501 kts 265°
2026-04-29 17:51 0.81999 48.34453 37889 ft 501 kts 265°
2026-04-29 17:51 0.81474 48.27512 37896 ft 501 kts 265°
2026-04-29 17:52 0.80950 48.20566 37901 ft 502 kts 265°
2026-04-29 17:52 0.80422 48.13584 37894 ft 504 kts 265°
2026-04-29 17:53 0.79892 48.06585 37895 ft 506 kts 265°
2026-04-29 17:53 0.79366 47.99628 37896 ft 505 kts 265°
2026-04-29 17:54 0.78835 47.92599 37890 ft 507 kts 265°
2026-04-29 17:54 0.78304 47.85578 37894 ft 507 kts 265°
2026-04-29 17:55 0.77772 47.78551 37896 ft 507 kts 265°
2026-04-29 17:55 0.77240 47.71510 37888 ft 508 kts 265°
2026-04-29 17:56 0.76707 47.64472 37886 ft 508 kts 265°
2026-04-29 17:56 0.76173 47.57424 37892 ft 508 kts 265°
2026-04-29 17:57 0.75639 47.50379 37899 ft 508 kts 265°
2026-04-29 17:57 0.75109 47.43379 37890 ft 508 kts 265°
2026-04-29 17:58 0.74504 47.36336 37885 ft 508 kts 262°
2026-04-29 17:58 0.73565 47.29354 37883 ft 507 kts 261°
2026-04-29 17:59 0.72731 47.23503 37895 ft 507 kts 261°
2026-04-29 17:59 0.71787 47.16568 37900 ft 507 kts 262°
2026-04-29 18:00 0.70870 47.09572 37901 ft 508 kts 262°
2026-04-29 18:00 0.69961 47.02561 37895 ft 508 kts 262°
2026-04-29 18:01 0.69054 46.95568 37901 ft 508 kts 262°
2026-04-29 18:01 0.68143 46.88560 37898 ft 509 kts 262°
2026-04-29 18:02 0.67230 46.81547 37891 ft 509 kts 262°
2026-04-29 18:02 0.66316 46.74525 37902 ft 509 kts 262°
2026-04-29 18:03 0.65404 46.67514 37893 ft 509 kts 262°
2026-04-29 18:03 0.64490 46.60494 37901 ft 509 kts 262°
2026-04-29 18:04 0.63582 46.53525 37888 ft 509 kts 262°
2026-04-29 18:04 0.62669 46.46512 37893 ft 509 kts 262°
2026-04-29 18:05 0.61755 46.39492 37895 ft 509 kts 262°
2026-04-29 18:05 0.60836 46.32475 37904 ft 509 kts 261°
2026-04-29 18:06 0.59820 46.25389 37897 ft 519 kts 261°
2026-04-29 18:06 0.58762 46.18224 37906 ft 522 kts 261°
2026-04-29 18:07 0.57714 46.11042 37895 ft 522 kts 261°
2026-04-29 18:07 0.56683 46.03910 37906 ft 522 kts 261°
2026-04-29 18:08 0.55647 45.96733 37893 ft 522 kts 261°
2026-04-29 18:08 0.54612 45.89557 37902 ft 522 kts 261°
2026-04-29 18:09 0.53578 45.82395 37903 ft 520 kts 261°
2026-04-29 18:09 0.52544 45.75238 37905 ft 520 kts 261°
2026-04-29 18:10 0.51512 45.68098 37904 ft 519 kts 261°
2026-04-29 18:10 0.50479 45.60945 37906 ft 519 kts 261°
2026-04-29 18:11 0.49453 45.53847 37896 ft 519 kts 261°
2026-04-29 18:11 0.48421 45.46704 37899 ft 519 kts 261°
2026-04-29 18:12 0.47389 45.39560 37909 ft 519 kts 261°
2026-04-29 18:12 0.46358 45.32423 37903 ft 519 kts 261°
2026-04-29 18:13 0.45326 45.25289 37899 ft 519 kts 261°
2026-04-29 18:13 0.44295 45.18155 37901 ft 519 kts 261°
2026-04-29 18:14 0.43263 45.11015 37902 ft 520 kts 261°
2026-04-29 18:14 0.42227 45.03846 37904 ft 522 kts 261°
2026-04-29 18:15 0.41193 44.96691 37897 ft 523 kts 261°
2026-04-29 18:15 0.40152 44.89494 37906 ft 524 kts 261°
2026-04-29 18:16 0.39111 44.82295 37907 ft 524 kts 261°
2026-04-29 18:16 0.38070 44.75091 37909 ft 524 kts 261°
2026-04-29 18:17 0.37027 44.67882 37906 ft 524 kts 261°
2026-04-29 18:17 0.35986 44.60682 37910 ft 524 kts 261°
2026-04-29 18:18 0.34944 44.53477 37899 ft 524 kts 261°
2026-04-29 18:18 0.33902 44.46269 37900 ft 524 kts 261°
2026-04-29 18:19 0.32858 44.39055 37908 ft 524 kts 261°
2026-04-29 18:19 0.31815 44.31846 37900 ft 524 kts 261°
2026-04-29 18:20 0.30772 44.24630 37904 ft 524 kts 261°
2026-04-29 18:20 0.29729 44.17425 37909 ft 523 kts 262°
2026-04-29 18:21 0.28689 44.10233 37902 ft 523 kts 262°
2026-04-29 18:21 0.27657 44.03097 37904 ft 523 kts 262°
2026-04-29 18:22 0.26617 43.95908 37909 ft 523 kts 262°
2026-04-29 18:22 0.25576 43.88715 37914 ft 523 kts 262°
2026-04-29 18:23 0.24536 43.81520 37911 ft 524 kts 262°
2026-04-29 18:23 0.23493 43.74310 37908 ft 524 kts 262°
2026-04-29 18:24 0.22448 43.67089 37906 ft 525 kts 262°
2026-04-29 18:24 0.21405 43.59879 37911 ft 525 kts 262°
2026-04-29 18:25 0.20361 43.52665 37906 ft 525 kts 262°
2026-04-29 18:25 0.19317 43.45450 37910 ft 525 kts 262°
2026-04-29 18:26 0.18272 43.38226 37899 ft 525 kts 261°
2026-04-29 18:26 0.17235 43.31063 37903 ft 524 kts 261°
2026-04-29 18:27 0.16216 43.23836 37804 ft 526 kts 262°
2026-04-29 18:27 0.15372 43.16572 37659 ft 528 kts 264°
2026-04-29 18:28 0.14831 43.09253 37597 ft 527 kts 267°
2026-04-29 18:28 0.14677 43.01944 37644 ft 526 kts 270°
2026-04-29 18:29 0.14958 42.94627 37619 ft 528 kts 274°
2026-04-29 18:29 0.15696 42.87313 37535 ft 530 kts 277°
2026-04-29 18:30 0.16908 42.80066 37573 ft 528 kts 281°
2026-04-29 18:30 0.18600 42.72921 37581 ft 529 kts 285°
2026-04-29 18:31 0.20780 42.65903 37583 ft 528 kts 289°
2026-04-29 18:31 0.23440 42.59061 37610 ft 528 kts 293°
2026-04-29 18:32 0.26566 42.52423 37576 ft 529 kts 297°
2026-04-29 18:32 0.32102 42.42882 37558 ft 528 kts 303°
2026-04-29 18:33 0.36225 42.37037 37634 ft 525 kts 308°
2026-04-29 18:33 0.40896 42.31370 37644 ft 526 kts 312°
2026-04-29 18:34 0.44681 42.27353 37570 ft 527 kts 315°
2026-04-29 18:34 0.49695 42.22660 39034 ft 526 kts 319°